Weather History for Greenville, NC

Change the Weather History Date:

Friday, June 28, 2013

  Actual Average Record
Temperature  
Mean Temperature 79 °F -  
Max Temperature 89 °F 88 °F 98 °F (1934)
Min Temperature 69 °F 65 °F 53 °F (1967)
Cooling Degree Days 14    
Growing Degree Days 29 (Base 50)    
Moisture  
Dew Point 72 °F    
Average Humidity 79    
Maximum Humidity 94    
Minimum Humidity 55    
Precipitation  
Precipitation 0.00 in - - ()
Sea Level Pressure  
Sea Level Pressure 29.72 in    
Wind  
Wind Speed 9 mph (SW)    
Max Wind Speed 16 mph    
Max Gust Speed 29 mph    
Visibility 10 miles    
Events Rain , Thunderstorm    
Averages and records for this station are not official NWS values.
T = Trace of Precipitation, MM = Missing Value Source: NWS Daily Summary

Daily Weather History Graph

Daily Weather History Graph

Search for Another Location

Airport:

Trip Planner

Search our weather history database for the weather conditions in past years. The results will help you decide how hot, cold, wet, or windy it might be!

Date:

Astronomy

Jun. 28, 2013 Rise Set
Actual Time 5:56 AM EDT 8:29 PM EDT
Civil Twilight 5:26 AM EDT 8:59 PM EDT
Nautical Twilight 4:49 AM EDT 9:36 PM EDT
Astronomical Twilight 4:07 AM EDT 10:17 PM EDT
Moon No Moon Rise 11:48 AM EDT (6/28)
Length of Visible Light 15h 32m
Length of Day
14h 32m
Waning Gibbous, 66% of the Moon is Illuminated
Jun 28
Waning Gibbous
Jun 30
Last Quarter
Jul 8
New
Jul 15
First Quarter
Jul 22
Full

Hourly Weather History & Observations

Time (EDT) Temp. Heat Index Dew Point Humidity Pressure Visibility Wind Dir Wind Speed Gust Speed Precip Events Conditions
12:15 AM 73.4 °F - 71.6 °F 94% 29.80 in 10.0 mi SSW 9.2 mph - N/A   Clear
12:35 AM 73.4 °F - 71.6 °F 94% 29.79 in 10.0 mi SW 10.4 mph - N/A   Clear
12:55 AM 73.4 °F - 71.6 °F 94% 29.79 in 10.0 mi SW 10.4 mph - N/A   Clear
1:15 AM 73.4 °F - 71.6 °F 94% 29.78 in 10.0 mi SW 10.4 mph - N/A   Scattered Clouds
1:35 AM 73.4 °F - 71.6 °F 94% 29.78 in 10.0 mi SW 10.4 mph - N/A   Scattered Clouds
1:55 AM 73.4 °F - 71.6 °F 94% 29.77 in 10.0 mi SW 8.1 mph - N/A   Clear
2:35 AM 73.4 °F - 71.6 °F 94% 29.76 in 10.0 mi SW 10.4 mph 16.1 mph N/A   Scattered Clouds
2:55 AM 73.4 °F - 71.6 °F 94% 29.76 in 10.0 mi SW 10.4 mph - N/A   Clear
3:15 AM 73.4 °F - 71.6 °F 94% 29.75 in 10.0 mi SW 9.2 mph - N/A   Scattered Clouds
3:35 AM 73.4 °F - 71.6 °F 94% 29.75 in 10.0 mi SW 10.4 mph - N/A   Mostly Cloudy
3:55 AM 73.4 °F - 71.6 °F 94% 29.74 in 10.0 mi WSW 6.9 mph - N/A   Scattered Clouds
4:15 AM 73.4 °F - 71.6 °F 94% 29.72 in 10.0 mi SW 4.6 mph - N/A   Clear
4:35 AM 73.4 °F - 71.6 °F 94% 29.72 in 10.0 mi SSW 5.8 mph - N/A   Clear
4:55 AM 73.4 °F - 71.6 °F 94% 29.73 in 10.0 mi SSW 6.9 mph - N/A   Clear
5:15 AM 73.4 °F - 71.6 °F 94% 29.73 in 10.0 mi SW 8.1 mph - N/A   Clear
5:35 AM 73.4 °F - 71.6 °F 94% 29.73 in 10.0 mi SW 8.1 mph - N/A   Clear
5:55 AM 73.4 °F - 71.6 °F 94% 29.74 in 10.0 mi SW 9.2 mph - N/A   Scattered Clouds
6:15 AM 73.4 °F - 71.6 °F 94% 29.74 in 10.0 mi SW 9.2 mph - N/A   Mostly Cloudy
6:35 AM 73.4 °F - 71.6 °F 94% 29.74 in 10.0 mi SW 8.1 mph - N/A   Scattered Clouds
6:55 AM 73.4 °F - 71.6 °F 94% 29.74 in 10.0 mi SW 8.1 mph - N/A   Clear
7:15 AM 73.4 °F - 71.6 °F 94% 29.75 in 10.0 mi SW 8.1 mph - N/A Thunderstorm Clear
7:35 AM 75.2 °F - 71.6 °F 89% 29.75 in 10.0 mi WSW 10.4 mph - N/A   Scattered Clouds
7:55 AM 77.0 °F - 73.4 °F 89% 29.74 in 10.0 mi WSW 6.9 mph - N/A Thunderstorm Mostly Cloudy
8:55 AM 78.8 °F - 73.4 °F 83% 29.73 in 10.0 mi WSW 12.7 mph - N/A   Overcast
8:57 AM 78.8 °F - 73.4 °F 83% 29.74 in 10.0 mi West 9.2 mph - N/A   Overcast
9:15 AM 78.8 °F - 73.4 °F 83% 29.74 in 10.0 mi WSW 5.8 mph 9.2 mph N/A   Overcast
9:35 AM 78.8 °F - 73.4 °F 83% 29.75 in 10.0 mi West 6.9 mph - N/A   Overcast
9:55 AM 78.8 °F - 73.4 °F 83% 29.75 in 10.0 mi WSW 4.6 mph - N/A   Overcast
10:15 AM 80.6 °F 85.4 °F 73.4 °F 79% 29.74 in 10.0 mi WSW 9.2 mph - N/A   Overcast
10:35 AM 80.6 °F 85.4 °F 73.4 °F 79% 29.74 in 10.0 mi SW 10.4 mph - N/A   Overcast
10:55 AM 80.6 °F 86.2 °F 75.2 °F 84% 29.74 in 10.0 mi SW 10.4 mph - N/A   Overcast
11:15 AM 82.4 °F 88.2 °F 73.4 °F 74% 29.74 in 10.0 mi SW 10.4 mph - N/A   Mostly Cloudy
11:35 AM 82.4 °F 89.5 °F 75.2 °F 79% 29.74 in 10.0 mi WSW 9.2 mph - N/A   Mostly Cloudy
11:55 AM 82.4 °F 89.5 °F 75.2 °F 79% 29.74 in 10.0 mi SW 6.9 mph - N/A   Overcast
12:15 PM 86.0 °F 96.9 °F 77.0 °F 74% 29.73 in 10.0 mi SSW 10.4 mph - N/A   Mostly Cloudy
12:35 PM 86.0 °F 95.1 °F 75.2 °F 70% 29.73 in 10.0 mi SW 11.5 mph - N/A   Scattered Clouds
12:55 PM 86.0 °F 95.1 °F 75.2 °F 70% 29.73 in 10.0 mi SW 6.9 mph - N/A   Scattered Clouds
1:15 PM 86.0 °F 95.1 °F 75.2 °F 70% 29.72 in 7.0 mi WSW 9.2 mph - N/A   Clear
1:35 PM 86.0 °F 95.1 °F 75.2 °F 70% 29.71 in 10.0 mi SW 6.9 mph - N/A   Clear
1:55 PM 87.8 °F 95.6 °F 73.4 °F 62% 29.70 in 10.0 mi WSW 9.2 mph - N/A   Clear
2:15 PM 87.8 °F 95.6 °F 73.4 °F 62% 29.69 in 10.0 mi WSW 10.4 mph - N/A   Clear
2:35 PM 89.6 °F 98.2 °F 73.4 °F 59% 29.69 in 10.0 mi WSW 10.4 mph - N/A   Scattered Clouds
2:55 PM 89.6 °F 98.2 °F 73.4 °F 59% 29.68 in 10.0 mi West 6.9 mph - N/A   Scattered Clouds
3:15 PM 89.6 °F 98.2 °F 73.4 °F 59% 29.68 in 10.0 mi WSW 10.4 mph - N/A   Clear
3:35 PM 89.6 °F 98.2 °F 73.4 °F 59% 29.67 in 10.0 mi WSW 10.4 mph - N/A   Clear
3:55 PM 89.6 °F 96.2 °F 71.6 °F 55% 29.67 in 10.0 mi WSW 11.5 mph 16.1 mph N/A   Clear
4:15 PM 89.6 °F 96.2 °F 71.6 °F 55% 29.66 in 10.0 mi WSW 10.4 mph - N/A   Clear
4:35 PM 89.6 °F 96.2 °F 71.6 °F 55% 29.65 in 10.0 mi WSW 15.0 mph 18.4 mph N/A   Clear
4:55 PM 89.6 °F 96.2 °F 71.6 °F 55% 29.65 in 10.0 mi SW 11.5 mph - N/A   Clear
5:15 PM 89.6 °F 96.2 °F 71.6 °F 55% 29.65 in 10.0 mi WSW 9.2 mph - N/A   Clear
5:35 PM 89.6 °F 96.2 °F 71.6 °F 55% 29.64 in 10.0 mi SW 10.4 mph - N/A   Clear
5:55 PM 89.6 °F 96.2 °F 71.6 °F 55% 29.64 in 10.0 mi SW 11.5 mph 18.4 mph N/A   Scattered Clouds
6:15 PM 87.8 °F 93.8 °F 71.6 °F 58% 29.65 in 10.0 mi SW 11.5 mph 16.1 mph N/A   Clear
6:35 PM 87.8 °F 93.8 °F 71.6 °F 58% 29.65 in 10.0 mi SW 9.2 mph - N/A   Clear
6:55 PM 87.8 °F 93.8 °F 71.6 °F 58% 29.66 in 10.0 mi SSW 8.1 mph - N/A   Clear
7:15 PM 86.0 °F 91.8 °F 71.6 °F 62% 29.67 in 10.0 mi SSW 5.8 mph - N/A   Clear
7:35 PM 86.0 °F 93.4 °F 73.4 °F 66% 29.66 in 10.0 mi SSW 9.2 mph - N/A   Clear
7:55 PM 86.0 °F 95.1 °F 75.2 °F 70% 29.66 in 10.0 mi SW 9.2 mph - N/A   Clear
8:15 PM 86.0 °F 95.1 °F 75.2 °F 70% 29.67 in 10.0 mi SSW 9.2 mph - N/A   Clear
8:35 PM 84.2 °F 92.3 °F 75.2 °F 74% 29.67 in 10.0 mi SSW 8.1 mph - N/A Thunderstorm Thunderstorm
8:55 PM 80.6 °F 84.6 °F 71.6 °F 74% 29.72 in 10.0 mi NW 10.4 mph 17.3 mph N/A Thunderstorm Thunderstorm
9:15 PM 71.6 °F - 68.0 °F 88% 29.76 in 5.0 mi NW 16.1 mph 28.8 mph N/A Rain , Thunderstorm Heavy Thunderstorms and Rain
9:35 PM 69.8 °F - 68.0 °F 94% 29.74 in 3.0 mi West 10.4 mph 26.5 mph N/A Rain , Thunderstorm Heavy Thunderstorms and Rain
9:55 PM 71.6 °F - 69.8 °F 94% 29.72 in 7.0 mi WSW 5.8 mph - N/A Rain , Thunderstorm Light Thunderstorms and Rain
10:15 PM 71.6 °F - 69.8 °F 94% 29.73 in 10.0 mi SW 13.8 mph - N/A Rain , Thunderstorm Light Thunderstorms and Rain
10:35 PM 71.6 °F - 69.8 °F 94% 29.73 in 10.0 mi SW 11.5 mph - N/A Rain Light Rain
10:55 PM 71.6 °F - 68.0 °F 88% 29.72 in 10.0 mi SSW 11.5 mph - N/A Rain , Thunderstorm Light Thunderstorms and Rain
11:15 PM 71.6 °F - 69.8 °F 94% 29.72 in 10.0 mi SSW 10.4 mph - N/A Rain Light Rain
11:35 PM 71.6 °F - 69.8 °F 94% 29.69 in 10.0 mi SSE 10.4 mph - N/A Rain Light Rain
11:55 PM 71.6 °F - 69.8 °F 94% 29.69 in 10.0 mi SSW 3.5 mph - N/A   Light Drizzle